Location: Middle Street
(51.7167°N, 0.0333°E)
Time: 03:16:17
(UTC+00:00)

NOSS 3-4 (A) - Pass Details

Date: 20 January 2021
Orbit: 877 x 1335 km, 63.4° (Epoch: 16 February)

Event Time Altitude Azimuth Distance (km) Brightness Sun altitude
Rises 17:53:02 0° 252° (WSW) 3,502 8.5 -12.8°
Reaches altitude 10° 17:55:35 10° 259° (WSW) 2,594 7.2 -13.2°
Maximum altitude 18:01:20 46° 332° (NNW) 1,279 4.2 -14.1°
Enters shadow 18:06:47 14° 41° (NE) 2,542 5.2 -14.9°
